Rusk, TX

3:49 PM CST on January 17, 2017 (GMT -0600)
Cherokee County

Weather History for KJSO - November, 2012

Change the Weather History Date:

Thursday, November 22, 2012

  Actual Average (KTYR) Record (KTYR)
Temperature  
Mean Temperature 62 °F -  
Max Temperature 71 °F 63 °F 83 °F (1909)
Min Temperature 52 °F 43 °F 22 °F (1976)
Degree Days  
Heating Degree Days 4    
Growing Degree Days 12 (Base 50)    
Moisture  
Dew Point 49 °F    
Average Humidity 63    
Maximum Humidity 81    
Minimum Humidity 42    
Precipitation  
Precipitation 0.00 in - - ()
Sea Level Pressure  
Sea Level Pressure 30.16 in    
Wind  
Wind Speed 6 mph (South)    
Max Wind Speed 14 mph    
Max Gust Speed 18 mph    
Visibility 10 miles    
Events      
Averages and records for this station are not official NWS values.
T = Trace of Precipitation, MM = Missing Value Source: NWS Daily Summary

Daily Weather History Graph

Daily Weather History Graph

Search for Another Location

Airport or City:

Trip Planner

Search our weather history database for the weather conditions in past years. The results will help you decide how hot, cold, wet, or windy it might be!

Date:

Astronomy

Nov. 22, 2012 Rise Set
Actual Time 6:55 AM CST 5:18 PM CST
Civil Twilight 6:29 AM CST 5:44 PM CST
Nautical Twilight 5:59 AM CST 6:14 PM CST
Astronomical Twilight 5:30 AM CST 6:43 PM CST
Moon 1:48 PM CST (11/22) 1:34 AM CST (11/22)
Length of Visible Light 11h 14m
Length of Day
10h 22m
Waxing Gibbous, 71% of the Moon is Illuminated
Nov 22
Waxing Gibbous
Nov 28
Full
Dec 6
Last Quarter
Dec 13
New
Dec 19
First Quarter

Hourly Weather History & Observations

Time (CST) Temp. Dew Point Humidity Pressure Visibility Wind Dir Wind Speed Gust Speed Precip Events Conditions
12:15 AM 57.4 °F 45.3 °F 64% 30.19 in 10.0 mi SSE 3.5 mph - N/A   Clear
12:35 AM 56.5 °F 44.6 °F 64% 30.19 in 10.0 mi SSE 4.6 mph - N/A   Clear
1:15 AM 57.2 °F 42.6 °F 58% 30.18 in 10.0 mi Calm Calm - N/A   Clear
1:35 AM 57.4 °F 41.7 °F 56% 30.17 in 10.0 mi SE 3.5 mph - N/A   Clear
1:55 AM 57.2 °F 41.9 °F 57% 30.17 in 10.0 mi SSE 3.5 mph - N/A   Clear
2:15 AM 55.4 °F 43.0 °F 63% 30.16 in 10.0 mi South 4.6 mph - N/A   Clear
2:35 AM 56.1 °F 43.2 °F 62% 30.17 in 10.0 mi South 8.1 mph - N/A   Clear
2:55 AM 55.0 °F 44.2 °F 67% 30.17 in 10.0 mi South 8.1 mph - N/A   Clear
3:15 AM 53.1 °F 44.6 °F 73% 30.16 in 10.0 mi SSE 6.9 mph - N/A   Clear
3:35 AM 53.1 °F 45.1 °F 74% 30.16 in 10.0 mi SSE 6.9 mph - N/A   Clear
3:55 AM 54.1 °F 44.6 °F 70% 30.16 in 10.0 mi South 6.9 mph - N/A   Clear
4:15 AM 55.4 °F 44.1 °F 66% 30.16 in 10.0 mi SSE 8.1 mph - N/A   Clear
4:55 AM 55.9 °F 44.1 °F 64% 30.16 in 10.0 mi South 5.8 mph - N/A   Clear
5:15 AM 54.0 °F 44.2 °F 70% 30.17 in 10.0 mi SSW 4.6 mph - N/A   Clear
5:35 AM 52.9 °F 44.6 °F 73% 30.17 in 10.0 mi SSE 5.8 mph - N/A   Clear
5:55 AM 52.0 °F 44.8 °F 76% 30.18 in 10.0 mi SSE 5.8 mph - N/A   Clear
6:15 AM 52.5 °F 44.6 °F 74% 30.18 in 10.0 mi SSE 4.6 mph - N/A   Clear
6:35 AM 52.3 °F 44.6 °F 75% 30.19 in 10.0 mi South 4.6 mph - N/A   Clear
7:15 AM 52.3 °F 44.8 °F 75% 30.19 in 10.0 mi South 4.6 mph - N/A   Clear
7:35 AM 53.1 °F 45.1 °F 74% 30.20 in 10.0 mi SSE 3.5 mph - N/A   Clear
7:55 AM 55.4 °F 46.0 °F 71% 30.20 in 10.0 mi SSE 4.6 mph - N/A   Clear
8:15 AM 57.6 °F 45.9 °F 65% 30.20 in 10.0 mi South 6.9 mph - N/A   Clear
8:35 AM 58.3 °F 46.4 °F 65% 30.21 in 10.0 mi South 4.6 mph - N/A   Clear
8:55 AM 58.6 °F 47.7 °F 67% 30.21 in 10.0 mi SSE 4.6 mph - N/A   Clear
9:15 AM 58.5 °F 49.3 °F 72% 30.21 in 10.0 mi South 4.6 mph - N/A   Clear
9:55 AM 60.3 °F 52.2 °F 75% 30.21 in 10.0 mi South 5.8 mph - N/A   Clear
10:15 AM 61.0 °F 52.5 °F 74% 30.22 in 10.0 mi South 5.8 mph - N/A   Clear
10:35 AM 63.5 °F 52.7 °F 68% 30.21 in 10.0 mi South 5.8 mph - N/A   Clear
10:55 AM 65.3 °F 52.7 °F 64% 30.21 in 10.0 mi South 6.9 mph - N/A   Clear
11:15 AM 66.7 °F 52.7 °F 61% 30.20 in 10.0 mi South 9.2 mph - N/A   Clear
11:35 AM 68.9 °F 51.1 °F 53% 30.19 in 10.0 mi South 6.9 mph - N/A   Clear
11:55 AM 70.2 °F 49.5 °F 48% 30.18 in 10.0 mi South 13.8 mph 18.4 mph N/A   Clear
12:15 PM 70.3 °F 50.5 °F 49% 30.17 in 10.0 mi South 8.1 mph 16.1 mph N/A   Clear
12:35 PM 71.8 °F 47.7 °F 42% 30.16 in 10.0 mi SSW 11.5 mph 17.3 mph N/A   Clear
12:55 PM 70.9 °F 46.8 °F 42% 30.15 in 10.0 mi SSW 11.5 mph - N/A   Clear
1:15 PM 70.3 °F 47.5 °F 44% 30.14 in 10.0 mi South 9.2 mph - N/A   Clear
1:35 PM 70.2 °F 46.8 °F 43% 30.13 in 10.0 mi South 8.1 mph - N/A   Clear
1:55 PM 70.3 °F 47.5 °F 44% 30.13 in 10.0 mi SSW 8.1 mph - N/A   Clear
2:15 PM 70.2 °F 48.2 °F 46% 30.13 in 10.0 mi South 10.4 mph - N/A   Clear
2:35 PM 70.9 °F 48.7 °F 45% 30.12 in 10.0 mi SSW 6.9 mph - N/A   Clear
2:55 PM 70.5 °F 49.8 °F 48% 30.12 in 10.0 mi South 10.4 mph - N/A   Clear
3:15 PM 70.3 °F 50.2 °F 49% 30.11 in 10.0 mi South 5.8 mph - N/A   Clear
3:35 PM 71.1 °F 50.7 °F 49% 30.11 in 10.0 mi South 4.6 mph - N/A   Clear
3:55 PM 71.4 °F 48.2 °F 44% 30.11 in 10.0 mi South 10.4 mph - N/A   Clear
4:15 PM 70.0 °F 49.1 °F 47% 30.11 in 10.0 mi South 10.4 mph - N/A   Clear
4:35 PM 69.4 °F 50.2 °F 50% 30.11 in 10.0 mi South 8.1 mph - N/A   Clear
4:55 PM 68.9 °F 50.9 °F 53% 30.11 in 10.0 mi South 5.8 mph - N/A   Clear
5:15 PM 67.3 °F 51.3 °F 56% 30.11 in 10.0 mi South 8.1 mph - N/A   Clear
5:35 PM 66.7 °F 51.3 °F 57% 30.11 in 10.0 mi SSE 5.8 mph - N/A   Clear
5:55 PM 64.4 °F 51.8 °F 64% 30.11 in 10.0 mi SSE 5.8 mph - N/A   Clear
6:15 PM 64.4 °F 51.8 °F 64% 30.11 in 10.0 mi SSE 4.6 mph - N/A   Clear
6:35 PM 63.5 °F 52.3 °F 67% 30.12 in 10.0 mi South 3.5 mph - N/A   Clear
6:55 PM 63.1 °F 52.2 °F 67% 30.12 in 10.0 mi South 4.6 mph - N/A   Clear
7:55 PM 61.9 °F 52.2 °F 70% 30.14 in 10.0 mi SSE 5.8 mph - N/A   Clear
8:15 PM 62.1 °F 52.2 °F 70% 30.14 in 10.0 mi South 5.8 mph - N/A   Clear
8:35 PM 61.9 °F 52.0 °F 70% 30.15 in 10.0 mi South 4.6 mph - N/A   Clear
8:55 PM 62.1 °F 52.2 °F 70% 30.15 in 10.0 mi South 4.6 mph - N/A   Clear
9:15 PM 62.6 °F 52.3 °F 69% 30.16 in 10.0 mi South 6.9 mph - N/A   Clear
9:35 PM 62.6 °F 52.2 °F 69% 30.16 in 10.0 mi South 8.1 mph - N/A   Clear
9:55 PM 62.6 °F 52.3 °F 69% 30.16 in 10.0 mi South 8.1 mph - N/A   Clear
10:15 PM 61.9 °F 52.7 °F 72% 30.16 in 10.0 mi South 8.1 mph - N/A   Clear
10:35 PM 61.2 °F 52.7 °F 74% 30.16 in 10.0 mi South 10.4 mph - N/A   Clear
10:55 PM 61.0 °F 53.1 °F 75% 30.16 in 10.0 mi South 9.2 mph - N/A   Clear
11:15 PM 60.3 °F 53.1 °F 77% 30.16 in 10.0 mi South 8.1 mph - N/A   Clear
11:35 PM 59.7 °F 53.2 °F 79% 30.16 in 10.0 mi South 6.9 mph - N/A   Clear
11:55 PM 59.4 °F 53.4 °F 81% 30.16 in 10.0 mi South 6.9 mph - N/A   Clear